Zurück zum Katalog

STARLINK-3088

AktivKommunikationVLEO
NORAD 49163·PAYLOAD·🇺🇸 United States

Gestartet Sep 14, 2021 von Vandenberg Space Force Base

Loading…

Nächste Überflüge (nächste 24 Stunden)

TLE

AktuellSource: CelesTrak SupGP

Epoche: Sep 14, 2026, 21:53 UTC

1 49163C 21082AK  26257.91229167 -.00043772  00000+0 -37463-2 0  2571
2 49163  70.0013 158.7449 0003050 268.5534 263.9894 14.97537586    12

Verfolge STARLINK-3088 in Echtzeit mit AllMySat

Download on the App Store